sat.trackr.live / text

‹ back to catalog

ONEWEB-0316

NORAD 49102 · 2021-075AD

PAYLOAD ACTIVE UNKNOWN

§ Identity

Operator
Country
UK
Launch date
2021-08-21
Launch site
TYMSC
Launch vehicle
Mass (kg)
RCS (m²)

Purposes: comms

External: N2YO · Heavens-Above · Gunter

§ Orbital elements

Epoch: 2026-09-20T03:45:07.375104Z

Period
109.20 min
Inclination
87.9160°
Eccentricity
0.0001795
Mean motion
13.18685225 rev/d
Perigee alt
1,188.4 km
Apogee alt
1,191.1 km
Semi-major
7,567.9 km
B*
6.0750e-5
RAAN
316.5866°
Arg perigee
100.1338°
Mean anomaly
259.9996°
Rev number
24,972

§ Raw data

ONEWEB-03161 49102U 21075AD  26263.15633536  .00000037  00000+0  60750-4 0  99932 49102  87.9160 316.5866 0001795 100.1338 259.9996 13.18685225249726

JSON: /api/v1/satellites/49102 · /tle

For live sub-satellite position, see the globe view (requires WebGL).

§ Visibility from observer

Set your observer location to see the next 7 days of passes ≥ 10°. The values pass through the URL so the page stays shareable.

No JS? Fill the form by hand. The geolocation button needs JavaScript.